GLOBALSTAR M004 DEB, 43356

Orbit data source: Space-Track

GLOBALSTAR M004 DEB, 43356 is space debris in LEO originally from a launch on Sat, 14 Feb 1998 UTC launched from the Air Force Eastern Test Range (AFETR). Debris objects in space refer to the collection of defunct objects orbiting the Earth. Examples of debris include non-operational satellites, rocket bodies, and fragments generated from explosions, collisions, or faulty payload assembly.

Loading next visibility...
Identifier
43356, 1998-008G
Orbit
LEO
Last TLE update
2 days ago
Origin
Manufacturer
Unknown
Mission
Spacecraft
Bus & Motor
Unknown
Mass
Unknown
Launch date (UTC)
1998-02-14 (27 years ago)
Launch vehicle
Unknown
Launch site
Air Force Eastern Test Range (AFETR)
Object type
Payload
Rocket body
Debris
Shape & HBR
Unknown
Radar Cross Section
Small (<0.1 m²)

Expand to show TLE details & history

TLE from 2 days ago
0 GLOBALSTAR M004 DEB
1 43356U 98008G   25182.24140485  .00000631  00000-0  33228-2 0  9992
2 43356  51.9018 117.0676 0032290 172.5908 187.5448 12.78072036440408
Epoch: 2025-07-01T05:47Z
TLE epoch observation values (Epoch: 2025-07-01T05:47:37.379Z)
Latitude
0.00002°
Longitude
110.62219°
Altitude
1,374.646 km
Speed
7.161 km/s
True Right ascension
07h 48m 16s
True Declination
0° 00' 00"
Sunlit
Object was in daylight at epoch
Visualization orbit readout
Latitude
44.25433°
Longitude
153.91146°
Altitude
1,364.127 km
Speed
7.177 km/s
Apparent Right ascension
07h 58m 36s
Apparent Declination
9° 53' 35"
Sunlit
Object is in daylight
Visualization observer readout
Local Sidereal Time
16:47:55
Azimuth
307.433° NW
Elevation
-23.489°
Doppler factor
1
Orbital elements
Apogee altitude
1,374.594 km
Perigee altitude
1,324.688 km
Semi-major axis
7,727.778 km
Eccentricity
0.00323
Inclination
51.9018°
RAAN
117.0676°
Arg. of periapsis
172.5908°
True anomaly
Unknown
Mean anomaly
187.5448°
Eccentric anomaly
Unknown
Mean motion
3.19493 °/min
Orbital period
112.68 mins
BSTAR
0.0033228
Loading maneuver chart data...
Loading SW <> Apogee altitude chart data...
Loading historical data...
Loading historical data...
Loading historical data...
Loading historical data...
Loading historical data...
Loading historical data...
Loading historical data...

GLOBALSTAR M004 DEB Visibility forecast

Observer location: undefined°, undefined°

Span
Click to sort rows by Start time (UTC) header in descending order
Start Az.
Max El. time (UTC)
Max El. Az.
Max El.
End time (UTC)
End Az.
16 mins2025-07-03 05:15:29.009Z304.456° NW2025-07-03 05:23:29.009Z227.355° WSW43.255°2025-07-03 05:31:29.009Z142.242° SSE
7 mins2025-07-03 07:17:29.009Z265.361° W2025-07-03 07:20:29.009Z240.964° WSW16.222°2025-07-03 07:24:29.009Z209.336° SW
9 mins2025-07-03 19:51:29.009Z155.589° SSE2025-07-03 19:55:29.009Z122.419° SE19.606°2025-07-03 20:00:29.009Z82.222° E
15 mins2025-07-03 21:45:29.009Z222.473° SW2025-07-03 21:52:29.009Z164.023° S44.299°2025-07-03 22:00:29.009Z54.516° ENE
14 mins2025-07-03 23:45:29.009Z274.667° WNW2025-07-03 23:51:29.009Z337.445° NNW35.538°2025-07-03 23:59:29.009Z51.989° ENE
13 mins2025-07-04 01:45:29.009Z306.035° NW2025-07-04 01:51:29.009Z3.348° NNE30.956°2025-07-04 01:58:29.009Z68.757° E
14 mins2025-07-04 03:44:29.009Z311.872° NW2025-07-04 03:51:29.009Z38.395° NE41.687°2025-07-04 03:58:29.009Z109.508° ESE
|